• en Suisse
  • Liste des pays
  • À 7 jours
  • Température de l'eau
  • Carte satellitaire
  • Carte météo
  • Widgets météo
  • user-avatar
    Se connecter

    Météo par heure à Rychkovka

    Ce jour, 23 Octobre, Mardi

    Heure Température Précipitation Vent Pression Humidité
    00:00 +4°C° 0 mm 1 m/s 761 mmHg 64%
    01:00 +4°C° 0 mm 1 m/s 761 mmHg 65%
    02:00 +4°C° 0 mm 1 m/s 760 mmHg 65%
    03:00 +4°C° 0 mm 1 m/s 760 mmHg 66%
    04:00 +2°C° 0 mm 0 m/s 760 mmHg 68%
    05:00 +3°C° 0 mm 1 m/s 760 mmHg 69%
    06:00 +2°C° 0 mm 1 m/s 759 mmHg 70%
    07:00 +2°C° 0 mm 1 m/s 759 mmHg 70%
    08:00 +4°C° 0 mm 1 m/s 759 mmHg 64%
    09:00 +5°C° 0 mm 2 m/s 759 mmHg 57%
    10:00 +7°C° 0 mm 2 m/s 758 mmHg 50%
    11:00 +8°C° 0 mm 3 m/s 758 mmHg 46%
    12:00 +10°C° 0 mm 3 m/s 757 mmHg 43%
    13:00 +11°C° 0 mm 4 m/s 757 mmHg 39%
    14:00 +11°C° 0 mm 4 m/s 756 mmHg 39%
    15:00 +12°C° 0 mm 4 m/s 756 mmHg 39%
    16:00 +12°C° 0 mm 4 m/s 755 mmHg 39%
    17:00 +11°C° 0 mm 4 m/s 754 mmHg 44%
    18:00 +10°C° 0 mm 4 m/s 754 mmHg 48%
    19:00 +9°C° 0 mm 3 m/s 754 mmHg 53%
    20:00 +10°C° 0 mm 4 m/s 753 mmHg 55%
    21:00 +10°C° 0 mm 4 m/s 753 mmHg 58%
    22:00 +10°C° 0 mm 5 m/s 752 mmHg 60%
    23:00 +10°C° 0 mm 5 m/s 752 mmHg 61%

    Demain, 24 Octobre, Mercredi

    Heure Température Précipitation Vent Pression Humidité
    00:00 +10°C° 0 mm 5 m/s 751 mmHg 62%
    01:00 +11°C° 0 mm 6 m/s 751 mmHg 63%
    02:00 +10°C° 0 mm 6 m/s 751 mmHg 65%
    03:00 +10°C° 0 mm 6 m/s 751 mmHg 67%
    04:00 +10°C° 0 mm 6 m/s 750 mmHg 70%
    05:00 +10°C° 0 mm 6 m/s 750 mmHg 74%
    06:00 +9°C° 0 mm 6 m/s 750 mmHg 78%
    07:00 +8°C° 0 mm 6 m/s 750 mmHg 82%
    08:00 +9°C° 0 mm 6 m/s 750 mmHg 80%
    09:00 +10°C° 0 mm 7 m/s 750 mmHg 77%
    10:00 +11°C° 0 mm 7 m/s 749 mmHg 75%
    11:00 +11°C° 0 mm 7 m/s 749 mmHg 73%
    12:00 +13°C° 0 mm 6 m/s 749 mmHg 70%
    13:00 +13°C° 0 mm 6 m/s 749 mmHg 67%
    14:00 +14°C° 0 mm 6 m/s 749 mmHg 66%
    15:00 +14°C° 0 mm 5 m/s 748 mmHg 65%
    16:00 +14°C° 0 mm 5 m/s 748 mmHg 64%
    17:00 +14°C° 0 mm 4 m/s 748 mmHg 65%
    18:00 +13°C° 0 mm 4 m/s 748 mmHg 67%
    19:00 +13°C° 0 mm 3 m/s 748 mmHg 68%
    20:00 +12°C° 0 mm 4 m/s 748 mmHg 69%
    21:00 +12°C° 0 mm 4 m/s 748 mmHg 69%
    22:00 +11°C° 0 mm 4 m/s 748 mmHg 70%
    23:00 +11°C° 0 mm 4 m/s 748 mmHg 71%

    Après-demain, 25 Octobre, Jeudi

    Heure Température Précipitation Vent Pression Humidité
    00:00 +10°C° 0 mm 4 m/s 748 mmHg 72%
    01:00 +10°C° 0 mm 4 m/s 748 mmHg 73%
    02:00 +10°C° 0 mm 4 m/s 747 mmHg 75%
    03:00 +8°C° 0 mm 5 m/s 747 mmHg 78%
    04:00 +8°C° 0 mm 5 m/s 747 mmHg 80%
    05:00 +8°C° 0 mm 5 m/s 747 mmHg 80%
    06:00 +8°C° 0 mm 5 m/s 746 mmHg 79%
    07:00 +8°C° 0 mm 6 m/s 746 mmHg 79%
    08:00 +9°C° 0 mm 6 m/s 746 mmHg 74%
    09:00 +11°C° 0 mm 7 m/s 745 mmHg 69%
    10:00 +12°C° 0 mm 7 m/s 745 mmHg 64%
    11:00 +15°C° 0 mm 8 m/s 745 mmHg 59%
    12:00 +17°C° 0 mm 9 m/s 744 mmHg 53%
    13:00 +18°C° 0 mm 9 m/s 743 mmHg 48%
    14:00 +19°C° 0 mm 9 m/s 743 mmHg 48%
    15:00 +20°C° 0 mm 8 m/s 742 mmHg 47%
    16:00 +20°C° 0 mm 7 m/s 742 mmHg 46%
    17:00 +20°C° 0 mm 8 m/s 742 mmHg 48%
    18:00 +18°C° 0 mm 8 m/s 741 mmHg 50%
    19:00 +17°C° 0 mm 8 m/s 741 mmHg 51%
    20:00 +17°C° 0 mm 9 m/s 741 mmHg 49%
    21:00 +17°C° 0 mm 9 m/s 741 mmHg 47%
    22:00 +17°C° 0 mm 10 m/s 741 mmHg 45%
    23:00 +17°C° 0.1 mm 9 m/s 740 mmHg 44%

    26 Octobre, Vendredi

    Heure Température Précipitation Vent Pression Humidité
    00:00 +17°C° 0.1 mm 9 m/s 740 mmHg 43%
    01:00 +17°C° 0.1 mm 9 m/s 740 mmHg 42%
    02:00 +16°C° 0 mm 8 m/s 740 mmHg 42%
    03:00 +16°C° 0 mm 7 m/s 739 mmHg 42%
    04:00 +16°C° 0 mm 7 m/s 739 mmHg 43%
    05:00 +15°C° 0.3 mm 6 m/s 740 mmHg 50%
    06:00 +14°C° 0.3 mm 6 m/s 740 mmHg 58%
    07:00 +13°C° 0.3 mm 6 m/s 740 mmHg 65%
    08:00 +13°C° 0.2 mm 5 m/s 741 mmHg 70%
    09:00 +13°C° 0.2 mm 4 m/s 741 mmHg 75%
    10:00 +13°C° 0.2 mm 4 m/s 742 mmHg 80%
    11:00 +13°C° 0 mm 4 m/s 743 mmHg 71%
    12:00 +13°C° 0 mm 5 m/s 743 mmHg 63%
    13:00 +13°C° 0 mm 5 m/s 743 mmHg 54%
    14:00 +12°C° 0 mm 5 m/s 744 mmHg 51%
    15:00 +12°C° 0 mm 4 m/s 744 mmHg 48%
    16:00 +12°C° 0 mm 4 m/s 744 mmHg 45%
    17:00 +11°C° 0 mm 4 m/s 745 mmHg 48%
    18:00 +10°C° 0 mm 3 m/s 745 mmHg 52%
    19:00 +9°C° 0 mm 3 m/s 746 mmHg 55%
    20:00 +9°C° 0 mm 3 m/s 746 mmHg 57%
    21:00 +8°C° 0 mm 3 m/s 747 mmHg 60%
    22:00 +7°C° 0 mm 4 m/s 747 mmHg 62%
    23:00 +7°C° 0 mm 3 m/s 748 mmHg 64%

    27 Octobre, Samedi

    Heure Température Précipitation Vent Pression Humidité
    00:00 +7°C° 0 mm 3 m/s 748 mmHg 67%
    01:00 +5°C° 0 mm 3 m/s 748 mmHg 69%
    02:00 +5°C° 0 mm 3 m/s 749 mmHg 71%
    03:00 +5°C° 0 mm 2 m/s 749 mmHg 73%
    04:00 +5°C° 0 mm 2 m/s 749 mmHg 76%
    05:00 +4°C° 0 mm 2 m/s 750 mmHg 76%
    06:00 +4°C° 0 mm 2 m/s 750 mmHg 77%
    07:00 +4°C° 0 mm 2 m/s 750 mmHg 77%
    08:00 +5°C° 0 mm 2 m/s 751 mmHg 72%
    09:00 +5°C° 0 mm 3 m/s 751 mmHg 67%
    10:00 +7°C° 0 mm 3 m/s 751 mmHg 63%
    11:00 +7°C° 0 mm 4 m/s 751 mmHg 60%
    12:00 +7°C° 0 mm 4 m/s 751 mmHg 57%
    13:00 +7°C° 0 mm 5 m/s 751 mmHg 54%
    14:00 +7°C° 0 mm 5 m/s 751 mmHg 52%
    15:00 +7°C° 0 mm 5 m/s 752 mmHg 50%
    16:00 +7°C° 0 mm 5 m/s 752 mmHg 47%
    17:00 +6°C° 0 mm 4 m/s 752 mmHg 50%
    18:00 +5°C° 0 mm 4 m/s 753 mmHg 53%
    19:00 +4°C° 0 mm 3 m/s 754 mmHg 55%
    20:00 +4°C° 0 mm 3 m/s 754 mmHg 58%
    21:00 +4°C° 0 mm 3 m/s 754 mmHg 60%
    22:00 +3°C° 0 mm 3 m/s 754 mmHg 63%
    23:00 +3°C° 0 mm 4 m/s 755 mmHg 65%

    28 Octobre, Dimanche

    Heure Température Précipitation Vent Pression Humidité
    00:00 +3°C° 0 mm 4 m/s 755 mmHg 67%
    01:00 +3°C° 0 mm 4 m/s 755 mmHg 69%
    02:00 +2°C° 0 mm 5 m/s 755 mmHg 69%
    03:00 +2°C° 0 mm 6 m/s 755 mmHg 69%
    04:00 +3°C° 0 mm 6 m/s 754 mmHg 69%
    05:00 +3°C° 0 mm 7 m/s 754 mmHg 70%
    06:00 +2°C° 0 mm 8 m/s 754 mmHg 70%
    07:00 +2°C° 0 mm 9 m/s 754 mmHg 70%
    08:00 +3°C° 0.3 mm 10 m/s 753 mmHg 70%
    09:00 +4°C° 0.3 mm 11 m/s 753 mmHg 70%
    10:00 +6°C° 0.3 mm 11 m/s 753 mmHg 70%
    11:00 +6°C° 1.4 mm 11 m/s 752 mmHg 74%
    12:00 +7°C° 1.4 mm 11 m/s 752 mmHg 79%
    13:00 +7°C° 1.4 mm 11 m/s 752 mmHg 83%
    14:00 +8°C° 0.9 mm 11 m/s 752 mmHg 83%
    15:00 +8°C° 0.9 mm 10 m/s 752 mmHg 84%
    16:00 +9°C° 0.9 mm 10 m/s 752 mmHg 84%
    17:00 +8°C° 0.3 mm 9 m/s 753 mmHg 82%
    18:00 +9°C° 0.3 mm 7 m/s 754 mmHg 80%
    19:00 +8°C° 0.3 mm 5 m/s 755 mmHg 78%
    20:00 +8°C° 0 mm 5 m/s 755 mmHg 78%
    21:00 +7°C° 0 mm 4 m/s 756 mmHg 78%
    22:00 +7°C° 0 mm 4 m/s 756 mmHg 78%
    23:00 +6°C° 0 mm 4 m/s 757 mmHg 79%

    29 Octobre, Lundi

    Heure Température Précipitation Vent Pression Humidité
    00:00 +6°C° 0 mm 4 m/s 757 mmHg 80%
    01:00 +5°C° 0 mm 4 m/s 758 mmHg 80%
    02:00 +5°C° 0 mm 4 m/s 758 mmHg 81%
    03:00 +4°C° 0 mm 4 m/s 759 mmHg 81%
    04:00 +4°C° 0 mm 4 m/s 759 mmHg 82%
    05:00 +4°C° 0 mm 4 m/s 760 mmHg 83%
    06:00 +3°C° 0 mm 3 m/s 760 mmHg 84%
    07:00 +3°C° 0 mm 3 m/s 761 mmHg 85%
    08:00 +4°C° 0 mm 4 m/s 761 mmHg 80%
    09:00 +5°C° 0 mm 4 m/s 762 mmHg 75%
    10:00 +6°C° 0 mm 4 m/s 762 mmHg 70%
    11:00 +6°C° 0 mm 4 m/s 762 mmHg 65%
    12:00 +7°C° 0 mm 4 m/s 763 mmHg 61%
    13:00 +8°C° 0 mm 4 m/s 763 mmHg 56%
    14:00 +9°C° 0 mm 3 m/s 763 mmHg 57%
    15:00 +9°C° 0 mm 3 m/s 763 mmHg 58%
    16:00 +9°C° 0 mm 2 m/s 764 mmHg 59%
    17:00 +8°C° 0 mm 2 m/s 764 mmHg 62%
    18:00 +9°C° 0 mm 1 m/s 764 mmHg 64%
    19:00 +9°C° 0 mm 1 m/s 764 mmHg 67%
    20:00 +8°C° 0.1 mm 1 m/s 764 mmHg 69%
    21:00 +8°C° 0.1 mm 1 m/s 765 mmHg 72%
    22:00 +8°C° 0.1 mm 1 m/s 765 mmHg 74%
    23:00 +8°C° 0 mm 1 m/s 765 mmHg 75%
    Voir plus